Location: American Canyon
(38.1966°N, 122.1514°W)
Time: 17:23:48
(UTC+00:00)

SL-14 R/B - Pass Details

Date: 29 October 2020
Orbit: 518 x 554 km, 82.4° (Epoch: 22 November)

Event Time Altitude Azimuth Distance (km) Brightness Sun altitude
Exits shadow 13:02:44 34° 314° (NW) 925 4.0 -18.1°
Drops below altitude 10° 13:05:37 10° 351° (N) 1,833 5.8 -17.5°
Sets 13:07:55 0° 360° (N) 2,736 6.8 -17.1°
